[[{"header":{"parameterUnit":"m.s-1","parameterCategory":2,"la1":30.2992,"la2":30.254,"lo1":-89.0895,"lo2":-89.0443,"dy":0.0025,"dx":0.0025,"nx":19,"ny":19,"refTime":"2026-03-14T03:00:00:Z","depth":"0","parameterNumber":2,"parameterNumberName":"U-component_of_CURRENTS"},"data":[0,0,0,-0.1126,-0.1127,-0.117,-0.117,-0.1162,-0.1162,0,0,0,0,0,0,0,0,0,0,0,-0.11,-0.11,-0.1126,-0.1127,-0.117,-0.117,-0.1162,-0.1162,0,0,0,0,0,0,0,0,0,0,0,-0.1099,-0.11,-0.11,-0.1127,-0.117,-0.117,-0.1162,-0.1143,0,0,0,0,0,0,0,0,0,0,-0.1108,-0.109,-0.11,-0.11,-0.1128,-0.117,-0.117,-0.1143,-0.1144,-0.1127,0,-0.1135,0,-0.1156,-0.1161,-0.1161,0,0,0,-0.1118,-0.1089,-0.1111,-0.11,-0.1128,-0.117,-0.1148,-0.1144,-0.1145,-0.1129,-0.1135,-0.1135,-0.1156,-0.116,-0.116,-0.1146,-0.1146,0,0,-0.1115,-0.1096,-0.111,-0.1112,-0.1139,-0.1147,-0.115,-0.1145,-0.1139,-0.1135,-0.1136,-0.1156,-0.116,-0.116,-0.1146,-0.1146,0,0,0,-0.1115,-0.1095,-0.1117,-0.1111,-0.1129,-0.1148,-0.1152,-0.1139,-0.115,-0.1136,-0.1155,-0.116,-0.116,-0.1146,-0.1146,-0.1178,0,0,0,-0.1113,-0.1096,-0.1116,-0.1104,-0.1129,-0.1142,-0.1145,-0.115,-0.1151,-0.1156,-0.116,-0.116,-0.1146,-0.1146,-0.1177,-0.1185,0,0,0,-0.1098,-0.1094,-0.1101,-0.1103,-0.1129,-0.1144,-0.1153,-0.115,-0.1163,-0.116,-0.116,-0.1146,-0.1146,-0.1177,-0.1184,-0.1098,0,0,0,-0.1074,-0.1092,-0.11,-0.1129,-0.1129,-0.1173,-0.1154,-0.1176,-0.1177,-0.116,-0.1146,-0.1146,-0.1176,-0.1183,-0.1099,-0.0815,-0.0788,0,0,-0.1089,-0.1093,-0.1114,-0.1124,-0.117,-0.1166,-0.1193,-0.1184,-0.1166,-0.1141,-0.1141,-0.1178,-0.1184,-0.1099,-0.0811,-0.0784,0,0,0,-0.1115,-0.1122,-0.114,-0.1166,-0.1199,-0.121,-0.1209,-0.1195,-0.1177,-0.1169,-0.1167,-0.1169,-0.1114,-0.0944,-0.0924,-0.0815,-0.1145,-0.1145,-0.1145,-0.1083,-0.1122,-0.1151,-0.1191,-0.1216,-0.1236,-0.1232,-0.1206,-0.1196,-0.1186,-0.1188,-0.1137,-0.0959,-0.0939,-0.0834,-0.1182,-0.1182,-0.1182,-0.1183,-0.1087,-0.1101,-0.1147,-0.1186,-0.1214,-0.1232,-0.1239,-0.123,-0.118,-0.1199,-0.1142,-0.0979,-0.0917,-0.0813,-0.1184,-0.1184,-0.1184,-0.1184,-0.1184,-0.1044,-0.1059,-0.1089,-0.1141,-0.1179,-0.1219,-0.1163,-0.1198,-0.1188,-0.117,-0.0905,-0.09,-0.0808,-0.1115,-0.1115,-0.1115,-0.1114,-0.1114,-0.1114,-0.0981,-0.102,-0.1017,-0.1093,-0.1097,-0.1113,-0.1109,-0.1019,-0.0904,-0.0897,-0.0893,-0.0751,-0.1115,-0.1117,-0.1109,-0.111,-0.111,-0.1111,-0.1111,-0.0919,-0.093,-0.092,-0.0916,-0.0923,-0.0854,-0.0871,-0.0635,-0.0564,-0.0451,-0.0396,-0.0712,-0.0653,-0.0666,-0.0655,-0.0529,-0.0529,-0.0529,-0.0529,-0.0844,-0.0866,-0.0793,-0.0746,-0.0704,-0.0709,-0.0426,-0.0278,-0.0125,-0.0035,-0.0104,-0.0065,-0.0094,-0.0005,-0.0033,-0.001,0.0277,0.0277,0.0278,-0.0776,-0.0771,-0.0676,-0.0653,-0.0595,-0.0495,-0.024,0.0007,0.0263,0.0306,-0.0017,-0.0051,-0.0012,-0.0065,0.0056,0.0008,0.0037,0,0]},{"header":{"parameterUnit":"m.s-1","parameterCategory":2,"la1":30.2992,"la2":30.254,"lo1":-89.0895,"lo2":-89.0443,"dy":0.0025,"dx":0.0025,"nx":19,"ny":19,"refTime":"2026-03-14T03:00:00:Z","depth":"0","parameterNumber":3,"parameterNumberName":"V-component_of_CURRENTS"},"data":[0,0,0,0.0014,0.0015,0.003,0.003,0.0071,0.0071,0,0,0,0,0,0,0,0,0,0,0,0.0009,0.0009,0.0014,0.0015,0.003,0.003,0.007,0.0071,0,0,0,0,0,0,0,0,0,0,0,0.0009,0.0009,0.0009,0.0015,0.003,0.003,0.007,0.0055,0,0,0,0,0,0,0,0,0,0,0.0038,0.0029,0.0009,0.0009,0.0015,0.003,0.003,0.0054,0.0056,0.0068,0,0.0066,0,0.0068,0.0074,0.0074,0,0,0,0.002,0.0027,0.003,0.0009,0.0015,0.003,0.0025,0.0055,0.0057,0.007,0.0067,0.0068,0.0068,0.0074,0.0074,0.0109,0.0109,0,0,0.0019,0.0016,0.0028,0.0031,0.0014,0.0024,0.0025,0.0056,0.0058,0.0067,0.0069,0.0069,0.0074,0.0074,0.0109,0.0109,0,0,0,0.0013,0.0015,0.0017,0.003,0.003,0.0024,0.0025,0.0056,0.0056,0.0069,0.0069,0.0074,0.0075,0.0108,0.0109,0.0086,0,0,0,0.0013,0.0011,0.0016,0.0015,0.0029,0.004,0.0025,0.0054,0.0058,0.0069,0.0074,0.0075,0.0108,0.0108,0.0087,0.0104,0,0,0,0.001,0.0011,0.0011,0.0014,0.0018,0.004,0.0042,0.0055,0.0058,0.0074,0.0075,0.0108,0.0108,0.0087,0.0104,0.0225,0,0,0,0.0008,-0.0019,0.0011,-0.002,0.0018,0.0011,0.0042,0.0041,0.005,0.0075,0.0108,0.0109,0.0087,0.0103,0.0223,0.0298,0.0314,0,0,-0.0034,-0.0024,-0.0045,-0.0019,-0.0048,0.0009,0.0008,0.0034,0.0062,0.01,0.0101,0.0087,0.0104,0.0225,0.0308,0.0324,0,0,0,-0.0064,-0.0079,-0.0083,-0.009,-0.0074,-0.0034,-0.0002,0.0031,0.0071,0.0068,0.0097,0.0109,0.0187,0.0227,0.0239,0.0337,0.0109,0.0109,0.0109,-0.0118,-0.012,-0.0153,-0.0144,-0.0127,-0.0065,-0.0018,0.004,0.0052,0.0074,0.0097,0.0183,0.022,0.0232,0.0329,0.009,0.009,0.009,0.009,-0.019,-0.0208,-0.0192,-0.0225,-0.0166,-0.0143,-0.0028,0.0011,0.0133,0.0097,0.0175,0.0206,0.0244,0.0343,0.0089,0.0089,0.0089,0.0089,0.009,-0.0224,-0.0232,-0.0253,-0.027,-0.0238,-0.0165,-0.0019,0.0056,0.0133,0.0193,0.0329,0.033,0.0422,0.0259,0.026,0.026,0.0261,0.0261,0.0262,-0.024,-0.0263,-0.0284,-0.0301,-0.0278,-0.0174,0.0007,0.0142,0.0305,0.0348,0.035,0.0469,0.0237,0.0236,0.0271,0.0269,0.0268,0.0267,0.0267,-0.0262,-0.0271,-0.0297,-0.0291,-0.0216,-0.008,0.0081,0.0362,0.0504,0.0593,0.0668,0.0462,0.0506,0.0496,0.0503,0.0606,0.0606,0.0606,0.0607,-0.0256,-0.0273,-0.0269,-0.0231,-0.0132,-0.0008,0.0296,0.0533,0.0749,0.0851,0.0861,0.0809,0.0791,0.0848,0.083,0.0843,0.103,0.103,0.1031,-0.0244,-0.0249,-0.0225,-0.0204,-0.0092,0.0096,0.037,0.0717,0.0997,0.1055,0.0988,0.097,0.0892,0.0856,0.0938,0.0905,0.0922,0,0]}],[{"header":{"parameterUnit":"m.s-1","parameterCategory":2,"la1":30.2992,"la2":30.254,"lo1":-89.0895,"lo2":-89.0443,"dy":0.0025,"dx":0.0025,"nx":19,"ny":19,"refTime":"2026-03-14T03:00:00:Z","depth":"2","parameterNumber":2,"parameterNumberName":"U-component_of_CURRENTS"},"data":[0,0,0,-0.1115,-0.1116,-0.1159,-0.1159,-0.1154,-0.1153,0,0,0,0,0,0,0,0,0,0,0,-0.1089,-0.1089,-0.1115,-0.1116,-0.1159,-0.1159,-0.1154,-0.1153,0,0,0,0,0,0,0,0,0,0,0,-0.1089,-0.1089,-0.1089,-0.1116,-0.1159,-0.1159,-0.1154,-0.1134,0,0,0,0,0,0,0,0,0,0,-0.1099,-0.1081,-0.1089,-0.1089,-0.1117,-0.1159,-0.1159,-0.1134,-0.1135,-0.1119,0,-0.1126,0,-0.1147,-0.1152,-0.1152,0,0,0,-0.1107,-0.108,-0.1101,-0.1089,-0.1117,-0.1159,-0.1137,-0.1135,-0.1137,-0.1121,-0.1127,-0.1127,-0.1147,-0.1152,-0.1152,-0.1141,-0.1141,0,0,-0.1105,-0.1087,-0.11,-0.1102,-0.1128,-0.1136,-0.1139,-0.1137,-0.1131,-0.1127,-0.1128,-0.1147,-0.1152,-0.1152,-0.1141,-0.1141,0,0,0,-0.1104,-0.1085,-0.1107,-0.1101,-0.1118,-0.1138,-0.1141,-0.1131,-0.1141,-0.1128,-0.1147,-0.1152,-0.1152,-0.1141,-0.1141,-0.1173,0,0,0,-0.1102,-0.1086,-0.1105,-0.1094,-0.1119,-0.1133,-0.1135,-0.1141,-0.1142,-0.1147,-0.1152,-0.1152,-0.1141,-0.1141,-0.1172,-0.1182,0,0,0,-0.1087,-0.1084,-0.1091,-0.1093,-0.1118,-0.1134,-0.1143,-0.1142,-0.1153,-0.1152,-0.1152,-0.1141,-0.1141,-0.1171,-0.118,-0.1102,0,0,0,-0.1064,-0.1082,-0.109,-0.1119,-0.1118,-0.1162,-0.1144,-0.1167,-0.1169,-0.1152,-0.1141,-0.1141,-0.1171,-0.1179,-0.1103,-0.086,-0.0837,0,0,-0.108,-0.1083,-0.1104,-0.1114,-0.116,-0.1156,-0.1184,-0.1177,-0.1159,-0.1136,-0.1136,-0.1172,-0.118,-0.1102,-0.0858,-0.0835,0,0,0,-0.1105,-0.1112,-0.113,-0.1157,-0.1189,-0.1202,-0.1201,-0.1188,-0.1172,-0.1162,-0.1162,-0.1166,-0.1115,-0.097,-0.0953,-0.1141,-0.1141,-0.1141,-0.1141,-0.1076,-0.1113,-0.1143,-0.1183,-0.1208,-0.1229,-0.1227,-0.1202,-0.1192,-0.1183,-0.1185,-0.1141,-0.0989,-0.0972,-0.1179,-0.1179,-0.1179,-0.1179,-0.1179,-0.1081,-0.1095,-0.114,-0.1179,-0.1208,-0.1227,-0.1236,-0.1227,-0.1182,-0.1197,-0.1145,-0.1004,-0.0953,-0.1182,-0.1181,-0.1181,-0.1181,-0.1181,-0.1181,-0.104,-0.1055,-0.1085,-0.1136,-0.1175,-0.1216,-0.1165,-0.1201,-0.1192,-0.1176,-0.0943,-0.0939,-0.1129,-0.1125,-0.1125,-0.1125,-0.1124,-0.1124,-0.1124,-0.0979,-0.1017,-0.1014,-0.109,-0.1094,-0.1112,-0.1114,-0.1032,-0.0941,-0.0941,-0.0937,-0.1121,-0.1122,-0.1124,-0.112,-0.112,-0.1121,-0.1121,-0.1122,-0.0918,-0.0929,-0.0919,-0.0916,-0.0923,-0.0862,-0.0886,-0.0691,-0.0632,-0.0541,-0.077,-0.078,-0.0727,-0.0738,-0.0728,-0.0622,-0.0622,-0.0622,-0.0622,-0.0846,-0.0867,-0.0795,-0.0748,-0.0708,-0.0721,-0.0474,-0.0367,-0.037,-0.0411,-0.0422,-0.0408,-0.043,-0.0363,-0.0383,-0.0367,-0.0167,-0.0167,-0.0167,-0.0779,-0.0774,-0.0681,-0.0656,-0.06,-0.0516,-0.0299,-0.0094,-0.005,-0.0163,-0.0493,-0.0562,-0.0568,-0.0593,-0.0512,-0.0536,-0.0519,0,0]},{"header":{"parameterUnit":"m.s-1","parameterCategory":2,"la1":30.2992,"la2":30.254,"lo1":-89.0895,"lo2":-89.0443,"dy":0.0025,"dx":0.0025,"nx":19,"ny":19,"refTime":"2026-03-14T03:00:00:Z","depth":"2","parameterNumber":3,"parameterNumberName":"V-component_of_CURRENTS"},"data":[0,0,0,-0.0076,-0.0076,-0.0057,-0.0057,-0.0012,-0.0012,0,0,0,0,0,0,0,0,0,0,0,-0.0081,-0.0081,-0.0076,-0.0076,-0.0057,-0.0057,-0.0013,-0.0012,0,0,0,0,0,0,0,0,0,0,0,-0.0081,-0.0081,-0.0081,-0.0075,-0.0057,-0.0057,-0.0013,-0.003,0,0,0,0,0,0,0,0,0,0,-0.005,-0.006,-0.0081,-0.0081,-0.0075,-0.0057,-0.0057,-0.0031,-0.0029,-0.0017,0,-0.0017,0,-0.0016,-0.0009,-0.0009,0,0,0,-0.007,-0.0062,-0.0059,-0.0081,-0.0075,-0.0057,-0.0064,-0.003,-0.0028,-0.0014,-0.0017,-0.0015,-0.0015,-0.0009,-0.0009,0.0031,0.0031,0,0,-0.0071,-0.0075,-0.006,-0.0057,-0.0075,-0.0065,-0.0063,-0.0029,-0.0027,-0.0017,-0.0014,-0.0014,-0.0009,-0.0008,0.0031,0.0031,0,0,0,-0.0078,-0.0075,-0.0073,-0.0059,-0.0058,-0.0064,-0.0063,-0.0028,-0.0028,-0.0014,-0.0014,-0.0008,-0.0008,0.0031,0.0031,0.0007,0,0,0,-0.0078,-0.008,-0.0074,-0.0075,-0.0059,-0.0046,-0.0063,-0.003,-0.0027,-0.0014,-0.0008,-0.0007,0.0031,0.0031,0.0008,0.0016,0,0,0,-0.0082,-0.008,-0.008,-0.0075,-0.007,-0.0047,-0.0044,-0.003,-0.0027,-0.0009,-0.0007,0.0031,0.0031,0.0008,0.0016,0.0128,0,0,0,-0.0083,-0.0109,-0.008,-0.0108,-0.007,-0.0075,-0.0045,-0.0042,-0.0032,-0.0008,0.0031,0.0031,0.0008,0.0016,0.0127,0.013,0.0138,0,0,-0.0124,-0.0114,-0.0133,-0.0107,-0.0135,-0.0077,-0.0076,-0.0048,-0.0019,0.0022,0.0023,0.0008,0.0016,0.0128,0.0144,0.0152,0,0,0,-0.0152,-0.0167,-0.0169,-0.0175,-0.0158,-0.0119,-0.0083,-0.005,-0.0008,-0.0012,0.0019,0.0026,0.0098,0.0096,0.0102,0.0032,0.0032,0.0032,0.0032,-0.0205,-0.0206,-0.0238,-0.0228,-0.0209,-0.0148,-0.0103,-0.0044,-0.0026,-0.0003,0.0014,0.0093,0.0086,0.0092,0.0014,0.0014,0.0014,0.0014,0.0014,-0.0275,-0.0294,-0.0278,-0.0309,-0.0252,-0.0229,-0.0116,-0.0075,0.0042,0.0014,0.0086,0.0078,0.0098,0.0012,0.0013,0.0013,0.0013,0.0013,0.0013,-0.031,-0.032,-0.0339,-0.0357,-0.0329,-0.0256,-0.0124,-0.0047,0.0035,0.009,0.0177,0.0177,0.0125,0.0156,0.0157,0.0157,0.0158,0.0158,0.0158,-0.033,-0.0351,-0.0374,-0.0393,-0.0374,-0.028,-0.0108,0.0012,0.0146,0.0181,0.0182,0.0144,0.0139,0.0136,0.0166,0.0165,0.0164,0.0163,0.0162,-0.0357,-0.0366,-0.0395,-0.0391,-0.0327,-0.022,-0.0069,0.0141,0.0274,0.0326,0.0263,0.0258,0.0293,0.0286,0.0289,0.0357,0.0357,0.0357,0.0357,-0.0358,-0.0373,-0.0375,-0.0343,-0.026,-0.0164,0.0027,0.0153,0.026,0.0263,0.0266,0.018,0.0176,0.0199,0.0195,0.0194,0.0237,0.0237,0.0236,-0.0353,-0.0358,-0.0339,-0.032,-0.0228,-0.0086,0.0025,0.0158,0.0232,0.0226,0.0189,0.036,0.0239,0.0229,0.0269,0.0261,0.026,0,0]}],[{"header":{"parameterUnit":"m.s-1","parameterCategory":2,"la1":30.2992,"la2":30.254,"lo1":-89.0895,"lo2":-89.0443,"dy":0.0025,"dx":0.0025,"nx":19,"ny":19,"refTime":"2026-03-14T03:00:00:Z","depth":"4","parameterNumber":2,"parameterNumberName":"U-component_of_CURRENTS"},"data":[0,0,0,-0.0858,-0.086,-0.0943,-0.0943,-0.0989,-0.099,0,0,0,0,0,0,0,0,0,0,0,-0.0828,-0.0828,-0.0858,-0.086,-0.0943,-0.0944,-0.0989,-0.099,0,0,0,0,0,0,0,0,0,0,0,-0.0827,-0.0828,-0.0829,-0.0861,-0.0943,-0.0944,-0.0989,-0.0942,0,0,0,0,0,0,0,0,0,0,-0.0869,-0.085,-0.0828,-0.0829,-0.0861,-0.0943,-0.0944,-0.094,-0.0945,-0.0935,0,-0.095,0,-0.0971,-0.0991,-0.0991,0,0,0,-0.0861,-0.0847,-0.0868,-0.0829,-0.0862,-0.0943,-0.0906,-0.0943,-0.0948,-0.094,-0.0951,-0.0953,-0.0971,-0.0992,-0.0992,-0.1023,-0.1024,0,0,-0.0856,-0.0843,-0.0865,-0.0871,-0.0885,-0.0903,-0.0908,-0.0947,-0.0952,-0.0951,-0.0955,-0.0972,-0.0992,-0.0992,-0.1023,-0.1023,0,0,0,-0.0843,-0.0839,-0.0861,-0.0869,-0.0889,-0.0906,-0.0912,-0.095,-0.0958,-0.0955,-0.0973,-0.0992,-0.0992,-0.1023,-0.1023,-0.1052,0,0,0,-0.084,-0.0832,-0.0859,-0.0852,-0.0888,-0.0929,-0.0914,-0.0955,-0.096,-0.0972,-0.0992,-0.0992,-0.1023,-0.1023,-0.1051,-0.1052,0,0,0,-0.0824,-0.083,-0.084,-0.0851,-0.0887,-0.093,-0.094,-0.0957,-0.097,-0.0991,-0.0992,-0.1023,-0.1023,-0.105,-0.1051,-0.1037,0,0,0,-0.0806,-0.0826,-0.084,-0.0873,-0.0887,-0.0946,-0.094,-0.0986,-0.1009,-0.0992,-0.1023,-0.1023,-0.105,-0.105,-0.1036,-0.0858,0,0,0,-0.0821,-0.0828,-0.0849,-0.0863,-0.0921,-0.0934,-0.0988,-0.1013,-0.1006,-0.1005,-0.1007,-0.1052,-0.105,-0.1037,-0.0883,0,0,0,0,-0.0847,-0.086,-0.0881,-0.092,-0.0962,-0.0999,-0.1028,-0.1029,-0.1042,-0.1021,-0.1051,-0.1049,-0.1039,-0.0935,-0.1025,-0.1025,-0.1025,-0.1025,-0.1025,-0.0836,-0.0871,-0.0909,-0.0955,-0.0994,-0.1047,-0.1067,-0.107,-0.1067,-0.1072,-0.1073,-0.1082,-0.0973,-0.1079,-0.1079,-0.1079,-0.108,-0.108,-0.108,-0.0845,-0.0858,-0.0917,-0.0964,-0.1015,-0.1058,-0.1093,-0.1099,-0.1098,-0.1094,-0.1083,-0.0973,-0.1083,-0.1082,-0.1082,-0.1081,-0.1081,-0.1081,-0.1081,-0.0815,-0.0824,-0.0869,-0.0926,-0.0984,-0.1043,-0.1039,-0.1082,-0.1108,-0.1115,-0.0979,-0.1088,-0.1084,-0.1106,-0.1106,-0.1106,-0.1106,-0.1106,-0.1106,-0.075,-0.0796,-0.0798,-0.0873,-0.0885,-0.0921,-0.0993,-0.0993,-0.1051,-0.0979,-0.1114,-0.109,-0.1089,-0.1084,-0.1105,-0.1105,-0.1105,-0.1105,-0.1105,-0.0678,-0.0695,-0.0684,-0.0687,-0.0717,-0.0742,-0.0832,-0.0847,-0.0837,-0.0818,-0.0896,-0.0907,-0.0871,-0.0875,-0.0862,-0.0818,-0.0815,-0.0813,0,-0.0597,-0.0618,-0.0562,-0.0528,-0.0517,-0.0615,-0.0568,-0.0628,-0.0711,-0.0681,-0.0853,-0.0942,-0.0948,-0.0909,-0.091,-0.0893,0,0,0,-0.0518,-0.0519,-0.0444,-0.0445,-0.0422,-0.0468,-0.0559,-0.0544,-0.0692,-0.0655,-0.0757,-0.0771,-0.0962,-0.1103,-0.1073,-0.1072,-0.1062,0,0]},{"header":{"parameterUnit":"m.s-1","parameterCategory":2,"la1":30.2992,"la2":30.254,"lo1":-89.0895,"lo2":-89.0443,"dy":0.0025,"dx":0.0025,"nx":19,"ny":19,"refTime":"2026-03-14T03:00:00:Z","depth":"4","parameterNumber":3,"parameterNumberName":"V-component_of_CURRENTS"},"data":[0,0,0,-0.0226,-0.0225,-0.0203,-0.0203,-0.0128,-0.0128,0,0,0,0,0,0,0,0,0,0,0,-0.0232,-0.0233,-0.0226,-0.0225,-0.0203,-0.0203,-0.0129,-0.0128,0,0,0,0,0,0,0,0,0,0,0,-0.0232,-0.0232,-0.0233,-0.0225,-0.0203,-0.0203,-0.0129,-0.0155,0,0,0,0,0,0,0,0,0,0,-0.0181,-0.0198,-0.0232,-0.0233,-0.0225,-0.0203,-0.0203,-0.0157,-0.0153,-0.0128,0,-0.0131,0,-0.013,-0.0122,-0.0122,0,0,0,-0.0217,-0.0201,-0.0196,-0.0233,-0.0225,-0.0203,-0.0211,-0.0155,-0.0151,-0.0123,-0.013,-0.0127,-0.0129,-0.0122,-0.0122,-0.0043,-0.0043,0,0,-0.0218,-0.0224,-0.0199,-0.0194,-0.0226,-0.0212,-0.021,-0.0153,-0.015,-0.013,-0.0126,-0.0128,-0.0121,-0.0121,-0.0044,-0.0043,0,0,0,-0.0227,-0.0225,-0.0222,-0.0197,-0.0198,-0.0211,-0.021,-0.0153,-0.0152,-0.0125,-0.0127,-0.0121,-0.012,-0.0044,-0.0043,-0.0077,0,0,0,-0.0228,-0.0231,-0.0223,-0.0225,-0.0199,-0.0182,-0.0211,-0.0156,-0.015,-0.0127,-0.0121,-0.0119,-0.0044,-0.0044,-0.0077,-0.0122,0,0,0,-0.0232,-0.0231,-0.0231,-0.0225,-0.022,-0.0183,-0.0179,-0.0155,-0.0151,-0.0122,-0.0119,-0.0044,-0.0044,-0.0077,-0.0121,-0.0161,0,0,0,-0.0234,-0.025,-0.0231,-0.0245,-0.022,-0.0205,-0.018,-0.0162,-0.014,-0.012,-0.0044,-0.0043,-0.0077,-0.0119,-0.0159,-0.0201,0,0,0,-0.0258,-0.0253,-0.0261,-0.0244,-0.0251,-0.0207,-0.0189,-0.0152,-0.0118,-0.0059,-0.0057,-0.0077,-0.012,-0.016,-0.0162,0,0,0,0,-0.0271,-0.0281,-0.0277,-0.0276,-0.0252,-0.0228,-0.0177,-0.0145,-0.0096,-0.0104,-0.0054,-0.0081,-0.0105,-0.0123,-0.004,-0.004,-0.0041,-0.0041,-0.0041,-0.0313,-0.0305,-0.0324,-0.0307,-0.0288,-0.0231,-0.02,-0.0142,-0.0099,-0.0077,-0.0091,-0.0123,-0.0138,-0.0053,-0.0053,-0.0053,-0.0053,-0.0053,-0.0053,-0.0364,-0.0383,-0.0364,-0.0383,-0.0342,-0.0316,-0.0224,-0.0182,-0.0135,-0.0093,-0.0114,-0.0134,-0.0056,-0.0055,-0.0055,-0.0055,-0.0055,-0.0054,-0.0054,-0.0401,-0.0413,-0.0424,-0.0451,-0.0449,-0.0389,-0.04,-0.0315,-0.02,-0.0197,-0.023,-0.016,-0.018,-0.0214,-0.0214,-0.0215,-0.0215,-0.0215,-0.0215,-0.0442,-0.0453,-0.0509,-0.0529,-0.0561,-0.0574,-0.0524,-0.051,-0.0406,-0.0296,-0.0229,-0.0178,-0.0173,-0.0189,-0.0221,-0.022,-0.0219,-0.0219,-0.0218,-0.0504,-0.0514,-0.0592,-0.0643,-0.0719,-0.0719,-0.0706,-0.0636,-0.0615,-0.0541,-0.034,-0.0332,-0.0336,-0.0328,-0.035,-0.0431,-0.0432,-0.0432,0,-0.0551,-0.0561,-0.0669,-0.0757,-0.082,-0.0802,-0.0783,-0.0752,-0.0599,-0.0528,-0.0598,-0.0371,-0.0363,-0.037,-0.0363,-0.039,0,0,0,-0.0607,-0.0624,-0.0707,-0.078,-0.0847,-0.0793,-0.0765,-0.0717,-0.0589,-0.0636,-0.045,-0.0446,-0.048,-0.0237,-0.0227,-0.022,-0.0246,0,0]}]]